Home   Weather   Stroudsburg   Past weeks

Flag for USA Past Weather in Stroudsburg, Pennsylvania, USA — Yesterday and Last 2 Weeks

Now
58 °F

Fog.


Feels Like: 56 °F
Forecast: 59 / 80 °F
Wind: 10 mph from Northwest

Location: Pocono Mountains Municipal Airport

Current Time: Apr 28, 2017 at 8:12:13 am

Latest Report: Apr 28, 2017 at 7:16 am


Visibility: 6 mi

Pressure: 29.96 "Hg

Humidity: 100%

Dew Point: 58 °F

Location of StroudsburgLocation

Past Weather in Stroudsburg — Graph

°F

Stroudsburg Temperature Yesterday

Maximum temperature yesterday: 69 °F (at 3:53 pm)
Minimum temperature yesterday: 54 °F (at 12:24 am)
Average temperature yesterday: 58 °F

High & Low Weather Summary for the Past Weeks

 TemperatureHumidityPressure
High76 °F (Apr 16, 3:53 pm)100% (Apr 16, 9:53 pm)30.45 "Hg (Apr 16, 9:53 pm)
Low33 °F (Apr 14, 12:53 am)20% (Apr 14, 4:53 pm)29.77 "Hg (Apr 26, 7:19 am)
Average51 °F79%30.06 "Hg
* Reported Apr 13 7:53 am — Apr 28 7:07 am, Stroudsburg, Weather by CustomWeather, © 2017

Note: Actual official high and low records may vary slightly from our data, if they occured in-between our weather recording intervals... More about our weather records

Advertising

Stroudsburg Weather History for the Previous 24 Hours

Scroll right to see more
 ConditionsComfort  
Time TempWeatherWind HumidityBarometerVisibility
7:07 am
Fri, Apr 28
58 °FFog.10 mph100%29.96 "Hg4 mi
6:53 am58 °FFog.10 mph100%29.93 "Hg2 mi
5:56 am57 °FFog.7 mph100%29.94 "Hg3 mi
5:23 am55 °FFog.3 mph100%29.93 "Hg1 mi
5:06 am56 °FFog.3 mph100%29.91 "Hg1 mi
4:13 am57 °FFog.No wind100%29.90 "Hg2 mi
3:53 am58 °FFog.3 mph100%29.86 "Hg5 mi
3:44 am58 °FFog.6 mph100%29.88 "Hg6 mi
2:53 am59 °FFog.7 mph100%29.86 "Hg5 mi
2:17 am58 °FFog.6 mph100%29.86 "Hg3 mi
1:53 am58 °FFog.7 mph100%29.85 "Hg1 mi
1:39 am58 °FFog.8 mph100%29.86 "Hg2 mi
1:11 am58 °FFog.7 mph100%29.86 "Hg1 mi
1:00 am58 °FFog.9 mph100%29.86 "Hg2 mi
12:26 am58 °FFog.6 mph100%29.86 "Hg2 mi
11:53 pm
Thu, Apr 27
59 °FMostly cloudy.5 mph100%29.86 "Hg7 mi
10:53 pm60 °FLow clouds.8 mph100%29.86 "Hg10 mi
9:53 pm60 °FLow clouds.8 mph96%29.86 "Hg10 mi
9:36 pm60 °FLow clouds.12 mph96%29.87 "Hg10 mi
9:05 pm61 °FLow clouds.12 mph93%29.86 "Hg10 mi
7:53 pm63 °FOvercast.15 mph87%29.83 "Hg10 mi
6:53 pm67 °FMostly cloudy.10 mph81%29.82 "Hg10 mi
5:53 pm68 °FMostly cloudy.12 mph78%29.82 "Hg10 mi
5:21 pm68 °FMostly cloudy.12 mph78%29.83 "Hg10 mi
4:53 pm68 °FMostly cloudy.13 mph78%29.83 "Hg10 mi
3:53 pm69 °FPartly sunny.12 mph73%29.82 "Hg10 mi
2:53 pm66 °FPartly sunny.13 mph81%29.85 "Hg10 mi
1:53 pm65 °FOvercast.9 mph81%29.87 "Hg10 mi
1:05 pm62 °FOvercast.7 mph86%29.90 "Hg10 mi
12:53 pm61 °FLow clouds.8 mph90%29.89 "Hg10 mi
12:15 pm60 °FLow clouds.7 mph93%29.91 "Hg10 mi
12:01 pm59 °FLow clouds.9 mph93%29.91 "Hg8 mi
11:23 am57 °FFog.8 mph100%29.91 "Hg4 mi
10:53 am56 °FFog.7 mph100%29.90 "Hg2 mi
10:36 am56 °FFog.8 mph100%29.90 "Hg2 mi
9:53 am55 °FFog.7 mph100%29.90 "Hg1 mi
9:34 am55 °FFog.8 mph100%29.90 "Hg1 mi
9:21 am55 °FFog.8 mph100%29.90 "Hg1 mi
8:18 am54 °FFog.7 mph100%29.91 "Hg1 mi
8:02 am54 °FFog.6 mph100%29.90 "Hg0 mi
Weather by CustomWeather, © 2017

See weather overviewHow to use our weather pages